Location: Bouchavesnes-Bergen
(49.9859°N, 2.9203°E)
Time: 01:18:21
(UTC+00:00)

Envisat - Pass Details

Date: 07 February 2023
Orbit: 763 x 765 km, 98.2° (Epoch: 28 March)

Event Time Altitude Azimuth Distance (km) Brightness Sun altitude
Rises 04:51:24 0° 9° (N) 3,246 6.4 -23.1°
Reaches altitude 10° 04:53:50 10° 2° (N) 2,315 5.5 -22.7°
Enters shadow 04:57:39 37° 320° (NW) 1,184 3.6 -22.1°
